Showing default

TIANLIAN 2-02, 50005

Orbit data source: Space-Track

TIANLIAN 2-02, 50005 is a payload satellite owned by CAST (CN) in GEO that was launched on Mon, 13 Dec 2021 UTC via a CHANG ZHENG 3B launch vehicle from the Xichang Space Center, China (XSC). Payload-class satellites include a variety of spacecraft equipped with specific instruments for various scientific and technological missions. These include communications satellites like Starlink; space stations such as the ISS; scientific satellites like the Hubble; Earth observation satellites from companies like Planet Labs, Umbra, and HawkEye 360; GPS; miniature CubeSats for education and research; and military/defense satellites.

Not visible in the next 10 days
Identifier
50005, 2021-124A
Orbit
GEO
Country
Flag of CNCN / PRC
Related business
Manufacturer
CAST
Mission
Operational Civil Communications
Bus & Motor
DFH-4?, FY-25
Mass
~5,000 kg wet, ~2,000 kg dry
Launch date (UTC)
2021-12-13 (5 years ago)
Launch vehicle
CHANG ZHENG 3B
Launch site
Xichang Space Center, China (XSC)
Object type
Payload
Rocket body
Debris
Shape & HBR
Box + 2 Pan + 1 Dish, 10.0 m
Radar Cross Section
40.604 m², Large (>1 m²)

Expand to show TLE details & history
Last TLE update: 14 hours ago

TLE from 14 hours ago
0 TIANLIAN 2-02
1 50005U 21124A   26172.85165248 -.00000013  00000-0  00000+0 0  9991
2 50005   0.8148  86.0573 0001195 167.1157 134.4235  1.00281719 16666
Epoch: 2026-06-21T20:26Z
TLE epoch observation values (Epoch: 2026-06-21T20:26:22.774Z)
Latitude
-0.68548°
Longitude
170.97903°
Altitude
35,786.926 km
Speed
3.075 km/s
True Right ascension
01h 50m 28s
True Declination
0° 41' 05"
Sunlit
Object was in daylight at epoch
Visualization orbit readout
Latitude
Unknown
Longitude
Unknown
Altitude
Unknown
Speed
Unknown
Apparent Right ascension
Unknown
Apparent Declination
Unknown
Sunlit
N/A
Visualization observer readout
Local Sidereal Time
21:23:58
Azimuth
Unknown
Elevation
Unknown
Doppler factor
Unknown
Orbital elements
Apogee altitude
35,789.919 km
Perigee altitude
35,779.842 km
Semi-major axis
42,163.017 km
Eccentricity
0.00012
Inclination
0.8148°
RAAN
86.0573°
Arg. of periapsis
167.1157°
True anomaly
134.43328°
Mean anomaly
134.4235°
Eccentric anomaly
134.42839°
Mean motion
0.25069 °/min
Orbital period
1,436.01 mins
BSTAR
0
Loading maneuver chart data...
Computing Atmospheric mass density...
Loading historical data...
Loading historical data...
Loading historical data...
Loading historical data...
Loading historical data...
Loading historical data...
Loading historical data...
Other satellites on launch #124 in the year 2021 (2021-12-13 UTC)

Documentation

Showing up to 5 results
|